Year,Month,Day,Hour,Minute,Value (Times are PST for temperature in C)
2009,08,11,00,00,14.20
2009,08,11,00,01,14.20
2009,08,11,00,02,14.20
2009,08,11,00,03,14.20
2009,08,11,00,04,14.30
2009,08,11,00,05,14.30
2009,08,11,00,06,14.30
2009,08,11,00,07,14.30
2009,08,11,00,08,14.30
2009,08,11,00,09,14.30
2009,08,11,00,10,14.30
2009,08,11,00,11,14.30
2009,08,11,00,12,14.30
2009,08,11,00,13,14.30
2009,08,11,00,14,14.30
2009,08,11,00,15,14.30
2009,08,11,00,16,14.30
2009,08,11,00,17,14.30
2009,08,11,00,18,14.30
2009,08,11,00,19,14.40
2009,08,11,00,20,14.40
2009,08,11,00,21,14.40
2009,08,11,00,22,14.40
2009,08,11,00,23,14.40
2009,08,11,00,24,14.40
2009,08,11,00,25,14.40
2009,08,11,00,26,14.50
2009,08,11,00,27,14.50
2009,08,11,00,28,14.50
2009,08,11,00,29,14.50
2009,08,11,00,30,14.60
2009,08,11,00,31,14.60
2009,08,11,00,32,14.60
2009,08,11,00,33,14.60
2009,08,11,00,34,14.60
2009,08,11,00,35,14.60
2009,08,11,00,36,14.60
2009,08,11,00,37,14.60
2009,08,11,00,38,14.60
2009,08,11,00,39,14.60
2009,08,11,00,40,14.60
2009,08,11,00,41,14.60
2009,08,11,00,42,14.60
2009,08,11,00,43,14.60
2009,08,11,00,44,14.70
2009,08,11,00,45,14.70
2009,08,11,00,46,14.70
2009,08,11,00,47,14.70
2009,08,11,00,48,14.70
2009,08,11,00,49,14.70
2009,08,11,00,50,14.70
2009,08,11,00,51,14.70
2009,08,11,00,52,14.70
2009,08,11,00,53,14.70
2009,08,11,00,54,14.70
2009,08,11,00,55,14.70
2009,08,11,00,56,14.70
2009,08,11,00,57,14.70
2009,08,11,00,58,14.70
2009,08,11,00,59,14.70
2009,08,11,01,00,14.70
2009,08,11,01,01,14.70
2009,08,11,01,02,14.70
2009,08,11,01,03,14.70
2009,08,11,01,04,14.70
2009,08,11,01,05,14.70
2009,08,11,01,06,14.70
2009,08,11,01,07,14.70
2009,08,11,01,08,14.70
2009,08,11,01,09,14.70
2009,08,11,01,10,14.70
2009,08,11,01,11,14.70
2009,08,11,01,12,14.70
2009,08,11,01,13,14.70
2009,08,11,01,14,14.70
2009,08,11,01,15,14.70
2009,08,11,01,16,14.70
2009,08,11,01,17,14.70
2009,08,11,01,18,14.70
2009,08,11,01,19,14.70
2009,08,11,01,20,14.70
2009,08,11,01,21,14.70
2009,08,11,01,22,14.70
2009,08,11,01,23,14.70
2009,08,11,01,24,14.70
2009,08,11,01,25,14.70
2009,08,11,01,26,14.70
2009,08,11,01,27,14.70
2009,08,11,01,28,14.70
2009,08,11,01,29,14.70
2009,08,11,01,30,14.70
2009,08,11,01,31,14.70
2009,08,11,01,32,14.70
2009,08,11,01,33,14.80
2009,08,11,01,34,14.80
2009,08,11,01,35,14.80
2009,08,11,01,36,14.80
2009,08,11,01,37,14.80
2009,08,11,01,38,14.80
2009,08,11,01,39,14.80
2009,08,11,01,40,14.80
2009,08,11,01,41,14.80
2009,08,11,01,42,14.80
2009,08,11,01,43,14.80
2009,08,11,01,44,14.80
2009,08,11,01,45,14.80
2009,08,11,01,46,14.80
2009,08,11,01,47,14.80
2009,08,11,01,48,14.80
2009,08,11,01,49,14.80
2009,08,11,01,50,14.80
2009,08,11,01,51,14.80
2009,08,11,01,52,14.80
2009,08,11,01,53,14.80
2009,08,11,01,54,14.80
2009,08,11,01,55,14.80
2009,08,11,01,56,14.80
2009,08,11,01,57,14.80
2009,08,11,01,58,14.80
2009,08,11,01,59,14.80
2009,08,11,02,00,14.80
2009,08,11,02,01,14.80
2009,08,11,02,02,14.80
2009,08,11,02,03,14.80
2009,08,11,02,04,14.80
2009,08,11,02,05,14.90
2009,08,11,02,06,14.90
2009,08,11,02,07,14.90
2009,08,11,02,08,14.90
2009,08,11,02,09,14.90
2009,08,11,02,10,14.90
2009,08,11,02,11,14.90
2009,08,11,02,12,14.90
2009,08,11,02,13,14.90
2009,08,11,02,14,14.90
2009,08,11,02,15,14.90
2009,08,11,02,16,14.90
2009,08,11,02,17,14.90
2009,08,11,02,18,14.90
2009,08,11,02,19,14.90
2009,08,11,02,20,14.90
2009,08,11,02,21,14.80
2009,08,11,02,22,14.80
2009,08,11,02,23,14.80
2009,08,11,02,24,14.80
2009,08,11,02,25,14.80
2009,08,11,02,26,14.80
2009,08,11,02,27,14.80
2009,08,11,02,28,14.80
2009,08,11,02,29,14.80
2009,08,11,02,30,14.80
2009,08,11,02,31,14.80
2009,08,11,02,32,14.80
2009,08,11,02,33,14.80
2009,08,11,02,34,14.80
2009,08,11,02,35,14.90
2009,08,11,02,36,14.90
2009,08,11,02,37,14.90
2009,08,11,02,38,14.90
2009,08,11,02,39,14.90
2009,08,11,02,40,14.90
2009,08,11,02,41,14.90
2009,08,11,02,42,14.90
2009,08,11,02,43,14.90
2009,08,11,02,44,14.90
2009,08,11,02,45,14.90
2009,08,11,02,46,14.90
2009,08,11,02,47,14.90
2009,08,11,02,48,14.90
2009,08,11,02,49,14.90
2009,08,11,02,50,14.90
2009,08,11,02,51,14.90
2009,08,11,02,52,14.90
2009,08,11,02,53,14.90
2009,08,11,02,54,14.90
2009,08,11,02,55,14.90
2009,08,11,02,56,14.90
2009,08,11,02,57,14.80
2009,08,11,02,58,14.80
2009,08,11,02,59,14.80
2009,08,11,03,00,14.80
2009,08,11,03,01,14.80
2009,08,11,03,02,14.80
2009,08,11,03,03,14.80
2009,08,11,03,04,14.80
2009,08,11,03,05,14.80
2009,08,11,03,06,14.80
2009,08,11,03,07,14.80
2009,08,11,03,08,14.80
2009,08,11,03,09,14.80
2009,08,11,03,10,14.80
2009,08,11,03,11,14.80
2009,08,11,03,12,14.80
2009,08,11,03,13,14.70
2009,08,11,03,14,14.70
2009,08,11,03,15,14.70
2009,08,11,03,16,14.80
2009,08,11,03,17,14.80
2009,08,11,03,18,14.70
2009,08,11,03,19,14.70
2009,08,11,03,20,14.70
2009,08,11,03,21,14.70
2009,08,11,03,22,14.70
2009,08,11,03,23,14.70
2009,08,11,03,24,14.70
2009,08,11,03,25,14.80
2009,08,11,03,26,14.80
2009,08,11,03,27,14.70
2009,08,11,03,28,14.70
2009,08,11,03,29,14.80
2009,08,11,03,30,14.80
2009,08,11,03,31,14.80
2009,08,11,03,32,14.80
2009,08,11,03,33,14.80
2009,08,11,03,34,14.80
2009,08,11,03,35,14.70
2009,08,11,03,36,14.80
2009,08,11,03,37,14.70
2009,08,11,03,38,14.70
2009,08,11,03,39,14.70
2009,08,11,03,40,14.70
2009,08,11,03,41,14.70
2009,08,11,03,42,14.70
2009,08,11,03,43,14.70
2009,08,11,03,44,14.70
2009,08,11,03,45,14.70
2009,08,11,03,46,14.70
2009,08,11,03,47,14.70
2009,08,11,03,48,14.60
2009,08,11,03,49,14.60
2009,08,11,03,50,14.60
2009,08,11,03,51,14.60
2009,08,11,03,52,14.60
2009,08,11,03,53,14.60
2009,08,11,03,54,14.70
2009,08,11,03,55,14.70
2009,08,11,03,56,14.80
2009,08,11,03,57,14.80
2009,08,11,03,58,14.80
2009,08,11,03,59,14.80
2009,08,11,04,00,14.80
2009,08,11,04,01,14.90
2009,08,11,04,02,14.90
2009,08,11,04,03,14.90
2009,08,11,04,04,14.90
2009,08,11,04,05,14.90
2009,08,11,04,06,14.90
2009,08,11,04,07,14.90
2009,08,11,04,08,14.90
2009,08,11,04,09,14.80
2009,08,11,04,10,14.80
2009,08,11,04,11,14.80
2009,08,11,04,12,14.80
2009,08,11,04,13,14.80
2009,08,11,04,14,14.80
2009,08,11,04,15,14.80
2009,08,11,04,16,14.80
2009,08,11,04,17,14.80
2009,08,11,04,18,14.80
2009,08,11,04,19,14.80
2009,08,11,04,20,14.90
2009,08,11,04,21,14.90
2009,08,11,04,22,14.90
2009,08,11,04,23,14.90
2009,08,11,04,24,14.90
2009,08,11,04,25,14.90
2009,08,11,04,26,14.90
2009,08,11,04,27,15.00
2009,08,11,04,28,15.00
2009,08,11,04,29,15.00
2009,08,11,04,30,15.00
2009,08,11,04,31,15.00
2009,08,11,04,32,15.00
2009,08,11,04,33,15.00
2009,08,11,04,34,15.00
2009,08,11,04,35,14.90
2009,08,11,04,36,14.90
2009,08,11,04,37,14.90
2009,08,11,04,38,14.90
2009,08,11,04,39,14.80
2009,08,11,04,40,14.80
2009,08,11,04,41,14.80
2009,08,11,04,42,14.80
2009,08,11,04,43,14.80
2009,08,11,04,44,14.80
2009,08,11,04,45,14.80
2009,08,11,04,46,14.80
2009,08,11,04,47,14.90
2009,08,11,04,48,14.90
2009,08,11,04,49,14.90
2009,08,11,04,50,14.90
2009,08,11,04,51,14.90
2009,08,11,04,52,14.90
2009,08,11,04,53,15.00
2009,08,11,04,54,15.00
2009,08,11,04,55,15.00
2009,08,11,04,56,15.00
2009,08,11,04,57,15.00
2009,08,11,04,58,15.00
2009,08,11,04,59,15.00
2009,08,11,05,00,15.00
2009,08,11,05,01,14.90
2009,08,11,05,02,14.90
2009,08,11,05,03,14.90
2009,08,11,05,04,14.90
2009,08,11,05,05,14.80
2009,08,11,05,06,14.80
2009,08,11,05,07,14.80
2009,08,11,05,08,14.80
2009,08,11,05,09,14.80
2009,08,11,05,10,14.70
2009,08,11,05,11,14.70
2009,08,11,05,12,14.70
2009,08,11,05,13,14.70
2009,08,11,05,14,14.70
2009,08,11,05,15,14.70
2009,08,11,05,16,14.70
2009,08,11,05,17,14.70
2009,08,11,05,18,14.70
2009,08,11,05,19,14.70
2009,08,11,05,20,14.70
2009,08,11,05,21,14.70
2009,08,11,05,22,14.70
2009,08,11,05,23,14.70
2009,08,11,05,24,14.70
2009,08,11,05,25,14.80
2009,08,11,05,26,14.80
2009,08,11,05,27,14.80
2009,08,11,05,28,14.80
2009,08,11,05,29,14.90
2009,08,11,05,30,14.90
2009,08,11,05,31,15.00
2009,08,11,05,32,15.00
2009,08,11,05,33,15.00
2009,08,11,05,34,15.10
2009,08,11,05,35,15.10
2009,08,11,05,36,15.10
2009,08,11,05,37,15.10
2009,08,11,05,38,15.10
2009,08,11,05,39,15.10
2009,08,11,05,40,15.10
2009,08,11,05,41,15.10
2009,08,11,05,42,15.10
2009,08,11,05,43,15.10
2009,08,11,05,44,15.10
2009,08,11,05,45,15.10
2009,08,11,05,46,15.10
2009,08,11,05,47,15.10
2009,08,11,05,48,15.10
2009,08,11,05,49,15.00
2009,08,11,05,50,15.00
2009,08,11,05,51,15.00
2009,08,11,05,52,15.00
2009,08,11,05,53,14.90
2009,08,11,05,54,14.90
2009,08,11,05,55,14.90
2009,08,11,05,56,14.90
2009,08,11,05,57,14.80
2009,08,11,05,58,14.80
2009,08,11,05,59,14.80
2009,08,11,06,00,14.80
2009,08,11,06,01,14.80
2009,08,11,06,02,14.80
2009,08,11,06,03,14.80
2009,08,11,06,04,14.80
2009,08,11,06,05,14.80
2009,08,11,06,06,14.70
2009,08,11,06,07,14.70
2009,08,11,06,08,14.70
2009,08,11,06,09,14.70
2009,08,11,06,10,14.70
2009,08,11,06,11,14.70
2009,08,11,06,12,14.70
2009,08,11,06,13,14.70
2009,08,11,06,14,14.70
2009,08,11,06,15,14.60
2009,08,11,06,16,14.60
2009,08,11,06,17,14.60
2009,08,11,06,18,14.60
2009,08,11,06,19,14.60
2009,08,11,06,20,14.60
2009,08,11,06,21,14.60
2009,08,11,06,22,14.50
2009,08,11,06,23,14.50
2009,08,11,06,24,14.50
2009,08,11,06,25,14.40
2009,08,11,06,26,14.40
2009,08,11,06,27,14.30
2009,08,11,06,28,14.30
2009,08,11,06,29,14.30
2009,08,11,06,30,14.30
2009,08,11,06,31,14.20
2009,08,11,06,32,14.20
2009,08,11,06,33,14.20
2009,08,11,06,34,14.10
2009,08,11,06,35,14.10
2009,08,11,06,36,14.10
2009,08,11,06,37,14.00
2009,08,11,06,38,14.00
2009,08,11,06,39,13.90
2009,08,11,06,40,13.90
2009,08,11,06,41,13.90
2009,08,11,06,42,13.90
2009,08,11,06,43,13.80
2009,08,11,06,44,13.80
2009,08,11,06,45,13.80
2009,08,11,06,46,13.80
2009,08,11,06,47,13.80
2009,08,11,06,48,13.80
2009,08,11,06,49,13.80
2009,08,11,06,50,13.80
2009,08,11,06,51,13.80
2009,08,11,06,52,13.80
2009,08,11,06,53,13.80
2009,08,11,06,54,13.80
2009,08,11,06,55,13.80
2009,08,11,06,56,13.80
2009,08,11,06,57,13.80
2009,08,11,06,58,13.90
2009,08,11,06,59,13.90
2009,08,11,07,00,13.90
2009,08,11,07,01,14.00
2009,08,11,07,02,14.00
2009,08,11,07,03,14.10
2009,08,11,07,04,14.20
2009,08,11,07,05,14.30
2009,08,11,07,06,14.30
2009,08,11,07,07,14.40
2009,08,11,07,08,14.50
2009,08,11,07,09,14.60
2009,08,11,07,10,14.60
2009,08,11,07,11,14.70
2009,08,11,07,12,14.80
2009,08,11,07,13,14.90
2009,08,11,07,14,15.00
2009,08,11,07,15,15.10
2009,08,11,07,16,15.20
2009,08,11,07,17,15.30
2009,08,11,07,18,15.30
2009,08,11,07,19,15.40
2009,08,11,07,20,15.40
2009,08,11,07,21,15.50
2009,08,11,07,22,15.50
2009,08,11,07,23,15.60
2009,08,11,07,24,15.60
2009,08,11,07,25,15.60
2009,08,11,07,26,15.60
2009,08,11,07,27,15.70
2009,08,11,07,28,15.70
2009,08,11,07,29,15.70
2009,08,11,07,30,15.70
2009,08,11,07,31,15.70
2009,08,11,07,32,15.70
2009,08,11,07,33,15.70
2009,08,11,07,34,15.70
2009,08,11,07,35,15.70
2009,08,11,07,36,15.70
2009,08,11,07,37,15.70
2009,08,11,07,38,15.70
2009,08,11,07,39,15.70
2009,08,11,07,40,15.70
2009,08,11,07,41,15.70
2009,08,11,07,42,15.70
2009,08,11,07,43,15.70
2009,08,11,07,44,15.70
2009,08,11,07,45,15.70
2009,08,11,07,46,15.70
2009,08,11,07,47,15.80
2009,08,11,07,48,15.80
2009,08,11,07,49,15.90
2009,08,11,07,50,15.90
2009,08,11,07,51,16.00
2009,08,11,07,52,16.00
2009,08,11,07,53,16.00
2009,08,11,07,54,16.10
2009,08,11,07,55,16.10
2009,08,11,07,56,16.10
2009,08,11,07,57,16.10
2009,08,11,07,58,16.20
2009,08,11,07,59,16.20
2009,08,11,08,00,16.20
2009,08,11,08,01,16.20
2009,08,11,08,02,16.30
2009,08,11,08,03,16.30
2009,08,11,08,04,16.30
2009,08,11,08,05,16.40
2009,08,11,08,06,16.40
2009,08,11,08,07,16.50
2009,08,11,08,08,16.50
2009,08,11,08,09,16.60
2009,08,11,08,10,16.60
2009,08,11,08,11,16.60
2009,08,11,08,12,16.70
2009,08,11,08,13,16.80
2009,08,11,08,14,16.90
2009,08,11,08,15,16.90
2009,08,11,08,16,17.00
2009,08,11,08,17,17.10
2009,08,11,08,18,17.10
2009,08,11,08,19,17.10
2009,08,11,08,20,17.20
2009,08,11,08,21,17.20
2009,08,11,08,22,17.20
2009,08,11,08,23,17.20
2009,08,11,08,24,17.30
2009,08,11,08,25,17.30
2009,08,11,08,26,17.30
2009,08,11,08,27,17.30
2009,08,11,08,28,17.20
2009,08,11,08,29,17.20
2009,08,11,08,30,17.20
2009,08,11,08,31,17.20
2009,08,11,08,32,17.20
2009,08,11,08,33,17.20
2009,08,11,08,34,17.20
2009,08,11,08,35,17.20
2009,08,11,08,36,17.30
2009,08,11,08,37,17.30
2009,08,11,08,38,17.40
2009,08,11,08,39,17.40
2009,08,11,08,40,17.40
2009,08,11,08,41,17.50
2009,08,11,08,42,17.50
2009,08,11,08,43,17.50
2009,08,11,08,44,17.40
2009,08,11,08,45,17.40
2009,08,11,08,46,17.40
2009,08,11,08,47,17.30
2009,08,11,08,48,17.30
2009,08,11,08,49,17.30
2009,08,11,08,50,17.40
2009,08,11,08,51,17.50
2009,08,11,08,52,17.50
2009,08,11,08,53,17.50
2009,08,11,08,54,17.60
2009,08,11,08,55,17.60
2009,08,11,08,56,17.70
2009,08,11,08,57,17.70
2009,08,11,08,58,17.80
2009,08,11,08,59,17.90
2009,08,11,09,00,17.90
2009,08,11,09,01,18.00
2009,08,11,09,02,18.10
2009,08,11,09,03,18.10
2009,08,11,09,04,18.20
2009,08,11,09,05,18.30
2009,08,11,09,06,18.30
2009,08,11,09,07,18.30
2009,08,11,09,08,18.40
2009,08,11,09,09,18.40
2009,08,11,09,10,18.50
2009,08,11,09,11,18.50
2009,08,11,09,12,18.60
2009,08,11,09,13,18.60
2009,08,11,09,14,18.60
2009,08,11,09,15,18.70
2009,08,11,09,16,18.60
2009,08,11,09,17,18.60
2009,08,11,09,18,18.50
2009,08,11,09,19,18.50
2009,08,11,09,20,18.50
2009,08,11,09,21,18.60
2009,08,11,09,22,18.60
2009,08,11,09,23,18.60
2009,08,11,09,24,18.60
2009,08,11,09,25,18.70
2009,08,11,09,26,18.70
2009,08,11,09,27,18.70
2009,08,11,09,28,18.70
2009,08,11,09,29,18.70
2009,08,11,09,30,18.80
2009,08,11,09,31,18.80
2009,08,11,09,32,18.80
2009,08,11,09,33,18.90
2009,08,11,09,34,19.00
2009,08,11,09,35,19.10
2009,08,11,09,36,19.10
2009,08,11,09,37,19.20
2009,08,11,09,38,19.30
2009,08,11,09,39,19.40
2009,08,11,09,40,19.50
2009,08,11,09,41,19.50
2009,08,11,09,42,19.50
2009,08,11,09,43,19.50
2009,08,11,09,44,19.40
2009,08,11,09,45,19.40
2009,08,11,09,46,19.40
2009,08,11,09,47,19.40
2009,08,11,09,48,19.40
2009,08,11,09,49,19.40
2009,08,11,09,50,19.40
2009,08,11,09,51,19.30
2009,08,11,09,52,19.30
2009,08,11,09,53,19.20
2009,08,11,09,54,19.10
2009,08,11,09,55,19.00
2009,08,11,09,56,18.90
2009,08,11,09,57,18.90
2009,08,11,09,58,18.90
2009,08,11,09,59,18.90
2009,08,11,10,00,19.00
2009,08,11,10,01,19.10
2009,08,11,10,02,19.20
2009,08,11,10,03,19.20
2009,08,11,10,04,19.20
2009,08,11,10,05,19.30
2009,08,11,10,06,19.40
2009,08,11,10,07,19.50
2009,08,11,10,08,19.60
2009,08,11,10,09,19.60
2009,08,11,10,10,19.60
2009,08,11,10,11,19.60
2009,08,11,10,12,19.60
2009,08,11,10,13,19.60
2009,08,11,10,14,19.60
2009,08,11,10,15,19.50
2009,08,11,10,16,19.20
2009,08,11,10,17,19.00
2009,08,11,10,18,18.80
2009,08,11,10,19,18.70
2009,08,11,10,20,18.50
2009,08,11,10,21,18.40
2009,08,11,10,22,18.20
2009,08,11,10,23,18.00
2009,08,11,10,24,17.90
2009,08,11,10,25,17.80
2009,08,11,10,26,17.80
2009,08,11,10,27,17.90
2009,08,11,10,28,17.90
2009,08,11,10,29,18.00
2009,08,11,10,30,18.00
2009,08,11,10,31,18.00
2009,08,11,10,32,17.90
2009,08,11,10,33,17.80
2009,08,11,10,34,17.80
2009,08,11,10,35,17.90
2009,08,11,10,36,17.90
2009,08,11,10,37,18.00
2009,08,11,10,38,18.00
2009,08,11,10,39,18.20
2009,08,11,10,40,18.20
2009,08,11,10,41,18.30
2009,08,11,10,42,18.20
2009,08,11,10,43,18.20
2009,08,11,10,44,18.20
2009,08,11,10,45,18.20
2009,08,11,10,46,18.20
2009,08,11,10,47,18.30
2009,08,11,10,48,18.40
2009,08,11,10,49,18.50
2009,08,11,10,50,18.50
2009,08,11,10,51,18.50
2009,08,11,10,52,18.40
2009,08,11,10,53,18.30
2009,08,11,10,54,18.30
2009,08,11,10,55,18.20
2009,08,11,10,56,18.30
2009,08,11,10,57,18.30
2009,08,11,10,58,18.30
2009,08,11,10,59,18.40
2009,08,11,11,00,18.40
2009,08,11,11,01,18.50
2009,08,11,11,02,18.50
2009,08,11,11,03,18.60
2009,08,11,11,04,18.70
2009,08,11,11,05,18.70
2009,08,11,11,06,18.80
2009,08,11,11,07,18.80
2009,08,11,11,08,18.90
2009,08,11,11,09,18.90
2009,08,11,11,10,18.90
2009,08,11,11,11,19.00
2009,08,11,11,12,19.10
2009,08,11,11,13,19.20
2009,08,11,11,14,19.20
2009,08,11,11,15,19.20
2009,08,11,11,16,19.30
2009,08,11,11,17,19.30
2009,08,11,11,18,19.20
2009,08,11,11,19,19.10
2009,08,11,11,20,19.00
2009,08,11,11,21,19.00
2009,08,11,11,22,19.00
2009,08,11,11,23,19.10
2009,08,11,11,24,19.20
2009,08,11,11,25,19.30
2009,08,11,11,26,19.30
2009,08,11,11,27,19.30
2009,08,11,11,28,19.30
2009,08,11,11,29,19.20
2009,08,11,11,30,19.20
2009,08,11,11,31,19.10
2009,08,11,11,32,19.10
2009,08,11,11,33,19.10
2009,08,11,11,34,19.10
2009,08,11,11,35,19.10
2009,08,11,11,36,19.20
2009,08,11,11,37,19.30
2009,08,11,11,38,19.30
2009,08,11,11,39,19.40
2009,08,11,11,40,19.30
2009,08,11,11,41,19.30
2009,08,11,11,42,19.30
2009,08,11,11,43,19.30
2009,08,11,11,44,19.40
2009,08,11,11,45,19.50
2009,08,11,11,46,19.50
2009,08,11,11,47,19.40
2009,08,11,11,48,19.40
2009,08,11,11,49,19.40
2009,08,11,11,50,19.40
2009,08,11,11,51,19.40
2009,08,11,11,52,19.50
2009,08,11,11,53,19.60
2009,08,11,11,54,19.60
2009,08,11,11,55,19.70
2009,08,11,11,56,19.70
2009,08,11,11,57,19.70
2009,08,11,11,58,19.70
2009,08,11,11,59,19.70
2009,08,11,12,00,19.70
2009,08,11,12,01,19.70
2009,08,11,12,02,19.70
2009,08,11,12,03,19.60
2009,08,11,12,04,19.60
2009,08,11,12,05,19.50
2009,08,11,12,06,19.60
2009,08,11,12,07,19.50
2009,08,11,12,08,19.50
2009,08,11,12,09,19.50
2009,08,11,12,10,19.50
2009,08,11,12,11,19.50
2009,08,11,12,12,19.60
2009,08,11,12,13,19.60
2009,08,11,12,14,19.70
2009,08,11,12,15,19.80
2009,08,11,12,16,19.90
2009,08,11,12,17,20.00
2009,08,11,12,18,20.00
2009,08,11,12,19,20.10
2009,08,11,12,20,20.20
2009,08,11,12,21,20.20
2009,08,11,12,22,20.20
2009,08,11,12,23,20.20
2009,08,11,12,24,20.20
2009,08,11,12,25,20.10
2009,08,11,12,26,20.00
2009,08,11,12,27,20.00
2009,08,11,12,28,20.00
2009,08,11,12,29,19.90
2009,08,11,12,30,19.90
2009,08,11,12,31,19.90
2009,08,11,12,32,19.80
2009,08,11,12,33,19.70
2009,08,11,12,34,19.60
2009,08,11,12,35,19.50
2009,08,11,12,36,19.50
2009,08,11,12,37,19.40
2009,08,11,12,38,19.50
2009,08,11,12,39,19.50
2009,08,11,12,40,19.60
2009,08,11,12,41,19.70
2009,08,11,12,42,19.80
2009,08,11,12,43,19.80
2009,08,11,12,44,19.80
2009,08,11,12,45,19.80
2009,08,11,12,46,19.80
2009,08,11,12,47,19.80
2009,08,11,12,48,19.70
2009,08,11,12,49,19.60
2009,08,11,12,50,19.60
2009,08,11,12,51,19.50
2009,08,11,12,52,19.50
2009,08,11,12,53,19.50
2009,08,11,12,54,19.70
2009,08,11,12,55,19.80
2009,08,11,12,56,19.90
2009,08,11,12,57,20.00
2009,08,11,12,58,20.10
2009,08,11,12,59,20.20
2009,08,11,13,00,20.20
2009,08,11,13,01,20.30
2009,08,11,13,02,20.30
2009,08,11,13,03,20.40
2009,08,11,13,04,20.40
2009,08,11,13,05,20.50
2009,08,11,13,06,20.60
2009,08,11,13,07,20.60
2009,08,11,13,08,20.60
2009,08,11,13,09,20.50
2009,08,11,13,10,20.50
2009,08,11,13,11,20.50
2009,08,11,13,12,20.50
2009,08,11,13,13,20.50
2009,08,11,13,14,20.50
2009,08,11,13,15,20.50
2009,08,11,13,16,20.40
2009,08,11,13,17,20.40
2009,08,11,13,18,20.50
2009,08,11,13,19,20.60
2009,08,11,13,20,20.70
2009,08,11,13,21,20.80
2009,08,11,13,22,20.80
2009,08,11,13,23,20.90
2009,08,11,13,24,21.00
2009,08,11,13,25,21.00
2009,08,11,13,26,21.00
2009,08,11,13,27,20.90
2009,08,11,13,28,20.80
2009,08,11,13,29,20.90
2009,08,11,13,30,21.00
2009,08,11,13,31,21.10
2009,08,11,13,32,21.20
2009,08,11,13,33,21.20
2009,08,11,13,34,21.10
2009,08,11,13,35,21.10
2009,08,11,13,36,21.00
2009,08,11,13,37,20.90
2009,08,11,13,38,20.80
2009,08,11,13,39,20.90
2009,08,11,13,40,21.00
2009,08,11,13,41,21.20
2009,08,11,13,42,21.50
2009,08,11,13,43,21.80
2009,08,11,13,44,22.10
2009,08,11,13,45,22.30
2009,08,11,13,46,22.50
2009,08,11,13,47,22.60
2009,08,11,13,48,22.60
2009,08,11,13,49,22.50
2009,08,11,13,50,22.50
2009,08,11,13,51,22.60
2009,08,11,13,52,22.60
2009,08,11,13,53,22.60
2009,08,11,13,54,22.50
2009,08,11,13,55,22.50
2009,08,11,13,56,22.40
2009,08,11,13,57,22.30
2009,08,11,13,58,22.30
2009,08,11,13,59,22.20
2009,08,11,14,00,22.10
2009,08,11,14,01,22.10
2009,08,11,14,02,22.00
2009,08,11,14,03,22.00
2009,08,11,14,04,21.90
2009,08,11,14,05,21.80
2009,08,11,14,06,21.70
2009,08,11,14,07,21.70
2009,08,11,14,08,21.70
2009,08,11,14,09,21.60
2009,08,11,14,10,21.50
2009,08,11,14,11,21.50
2009,08,11,14,12,21.40
2009,08,11,14,13,21.40
2009,08,11,14,14,21.40
2009,08,11,14,15,21.40
2009,08,11,14,16,21.40
2009,08,11,14,17,21.50
2009,08,11,14,18,21.60
2009,08,11,14,19,21.60
2009,08,11,14,20,21.70
2009,08,11,14,21,21.80
2009,08,11,14,22,21.80
2009,08,11,14,23,21.80
2009,08,11,14,24,21.80
2009,08,11,14,25,21.70
2009,08,11,14,26,21.70
2009,08,11,14,27,21.70
2009,08,11,14,28,21.60
2009,08,11,14,29,21.60
2009,08,11,14,30,21.60
2009,08,11,14,31,21.70
2009,08,11,14,32,21.70
2009,08,11,14,33,21.80
2009,08,11,14,34,21.80
2009,08,11,14,35,21.80
2009,08,11,14,36,21.80
2009,08,11,14,37,21.80
2009,08,11,14,38,21.70
2009,08,11,14,39,21.50
2009,08,11,14,40,21.40
2009,08,11,14,41,21.40
2009,08,11,14,42,21.40
2009,08,11,14,43,21.30
2009,08,11,14,44,21.30
2009,08,11,14,45,21.40
2009,08,11,14,46,21.30
2009,08,11,14,47,21.10
2009,08,11,14,48,21.00
2009,08,11,14,49,20.80
2009,08,11,14,50,20.70
2009,08,11,14,51,20.70
2009,08,11,14,52,20.70
2009,08,11,14,53,20.70
2009,08,11,14,54,20.70
2009,08,11,14,55,20.70
2009,08,11,14,56,20.60
2009,08,11,14,57,20.60
2009,08,11,14,58,20.50
2009,08,11,14,59,20.50
2009,08,11,15,00,20.50
2009,08,11,15,01,20.40
2009,08,11,15,02,20.30
2009,08,11,15,03,20.30
2009,08,11,15,04,20.30
2009,08,11,15,05,20.40
2009,08,11,15,06,20.40
2009,08,11,15,07,20.40
2009,08,11,15,08,20.40
2009,08,11,15,09,20.40
2009,08,11,15,10,20.40
2009,08,11,15,11,20.40
2009,08,11,15,12,20.40
2009,08,11,15,13,20.40
2009,08,11,15,14,20.40
2009,08,11,15,15,20.50
2009,08,11,15,16,20.50
2009,08,11,15,17,20.40
2009,08,11,15,18,20.40
2009,08,11,15,19,20.40
2009,08,11,15,20,20.40
2009,08,11,15,21,20.40
2009,08,11,15,22,20.40
2009,08,11,15,23,20.40
2009,08,11,15,24,20.40
2009,08,11,15,25,20.50
2009,08,11,15,26,20.50
2009,08,11,15,27,20.50
2009,08,11,15,28,20.60
2009,08,11,15,29,20.70
2009,08,11,15,30,20.60
2009,08,11,15,31,20.50
2009,08,11,15,32,20.50
2009,08,11,15,33,20.50
2009,08,11,15,34,20.50
2009,08,11,15,35,20.50
2009,08,11,15,36,20.50
2009,08,11,15,37,20.40
2009,08,11,15,38,20.30
2009,08,11,15,39,20.30
2009,08,11,15,40,20.30
2009,08,11,15,41,20.30
2009,08,11,15,42,20.20
2009,08,11,15,43,20.20
2009,08,11,15,44,20.20
2009,08,11,15,45,20.20
2009,08,11,15,46,20.20
2009,08,11,15,47,20.20
2009,08,11,15,48,20.10
2009,08,11,15,49,20.10
2009,08,11,15,50,20.10
2009,08,11,15,51,20.10
2009,08,11,15,52,20.20
2009,08,11,15,53,20.20
2009,08,11,15,54,20.20
2009,08,11,15,55,20.10
2009,08,11,15,56,20.10
2009,08,11,15,57,20.10
2009,08,11,15,58,20.10
2009,08,11,15,59,20.10
2009,08,11,16,00,20.10
2009,08,11,16,01,20.00
2009,08,11,16,02,20.00
2009,08,11,16,03,20.00
2009,08,11,16,04,20.00
2009,08,11,16,05,20.00
2009,08,11,16,06,20.00
2009,08,11,16,07,20.00
2009,08,11,16,08,20.00
2009,08,11,16,09,19.90
2009,08,11,16,10,19.90
2009,08,11,16,11,19.90
2009,08,11,16,12,19.90
2009,08,11,16,13,19.90
2009,08,11,16,14,19.90
2009,08,11,16,15,19.90
2009,08,11,16,16,19.90
2009,08,11,16,17,20.00
2009,08,11,16,18,20.10
2009,08,11,16,19,20.10
2009,08,11,16,20,20.10
2009,08,11,16,21,20.10
2009,08,11,16,22,20.10
2009,08,11,16,23,20.20
2009,08,11,16,24,20.20
2009,08,11,16,25,20.20
2009,08,11,16,26,20.10
2009,08,11,16,27,20.00
2009,08,11,16,28,19.90
2009,08,11,16,29,19.80
2009,08,11,16,30,19.70
2009,08,11,16,31,19.60
2009,08,11,16,32,19.60
2009,08,11,16,33,19.50
2009,08,11,16,34,19.50
2009,08,11,16,35,19.40
2009,08,11,16,36,19.40
2009,08,11,16,37,19.40
2009,08,11,16,38,19.40
2009,08,11,16,39,19.50
2009,08,11,16,40,19.50
2009,08,11,16,41,19.40
2009,08,11,16,42,19.40
2009,08,11,16,43,19.40
2009,08,11,16,44,19.30
2009,08,11,16,45,19.30
2009,08,11,16,46,19.30
2009,08,11,16,47,19.30
2009,08,11,16,48,19.30
2009,08,11,16,49,19.40
2009,08,11,16,50,19.50
2009,08,11,16,51,19.50
2009,08,11,16,52,19.60
2009,08,11,16,53,19.70
2009,08,11,16,54,19.80
2009,08,11,16,55,19.80
2009,08,11,16,56,19.70
2009,08,11,16,57,19.70
2009,08,11,16,58,19.70
2009,08,11,16,59,19.70
2009,08,11,17,00,19.70
2009,08,11,17,01,19.60
2009,08,11,17,02,19.50
2009,08,11,17,03,19.30
2009,08,11,17,04,19.30
2009,08,11,17,05,19.20
2009,08,11,17,06,19.20
2009,08,11,17,07,19.20
2009,08,11,17,08,19.20
2009,08,11,17,09,19.20
2009,08,11,17,10,19.10
2009,08,11,17,11,19.10
2009,08,11,17,12,19.00
2009,08,11,17,13,18.90
2009,08,11,17,14,18.80
2009,08,11,17,15,18.80
2009,08,11,17,16,18.70
2009,08,11,17,17,18.70
2009,08,11,17,18,18.80
2009,08,11,17,19,18.80